Simultaneous Nadir Overpasses (SNOs) Predictions

Prediction of SNOs between AQUA and METOP-C Satellite Orbit:

Table of predicted SNOs for the next 14.0 days since TLE Epoch: 4/6/2024
Index Date (AQUA) Time (AQUA) Lat,Lon (AQUA) SZA (AQUA ) Date (METOP-C) Time (METOP-C) Lat,Lon (METOP-C) SZA (METOP-C ) Distance(km) Time Diff (sec)
1 04/06/2024 21:25:32 -75.28, 36.36 111.69 04/06/2024 21:25:13 -75.26, 36.34 111.70 1.97 19
2 04/06/2024 22:14:56 75.32,-156.10 68.35 04/06/2024 22:15:51 75.35,-156.06 68.38 3.43 55
3 04/09/2024 12:47:24 74.98, -13.28 67.03 04/09/2024 12:46:15 74.91, -14.89 66.99 47.34 69
4 04/09/2024 13:36:52 -75.28, 153.57 112.69 04/09/2024 13:36:49 -75.28, 153.48 112.68 2.58 3
5 04/09/2024 14:26:17 75.38, -39.04 67.41 04/09/2024 14:27:27 75.37, -38.91 67.40 3.75 70
6 04/12/2024 04:58:48 75.24, 103.25 66.30 04/12/2024 04:57:44 75.26, 103.20 66.33 3.16 64
7 04/12/2024 05:48:12 -75.33, -89.35 113.62 04/12/2024 05:48:24 -75.33, -89.26 113.61 2.66 12
8 04/12/2024 06:37:47 75.92, 76.55 67.00 04/12/2024 06:38:51 75.94, 80.00 66.98 93.20 64
9 04/14/2024 21:10:06 75.29,-139.67 65.39 04/14/2024 21:09:19 75.26,-139.69 65.37 2.70 47
10 04/14/2024 21:59:29 -75.33, 27.87 114.58 04/14/2024 21:59:59 -75.33, 27.84 114.58 0.86 30
11 04/17/2024 13:21:23 75.29, -22.46 64.45 04/17/2024 13:20:54 75.31, -22.47 64.47 1.99 29
12 04/17/2024 14:10:47 -75.38, 144.95 115.48 04/17/2024 14:11:34 -75.37, 145.06 115.49 3.13 47



Historial Predications of SNOs between AQUA and METOP-C
